Weather History for Sidney, NE

Change the Weather History Date:

Sunday, February 12, 2012

  Actual Average Record
Temperature  
Mean Temperature 17 °F 31 °F  
Max Temperature 23 °F 44 °F 71 °F (1961)
Min Temperature 11 °F 18 °F -12 °F (1986)
Degree Days  
Heating Degree Days 48 34  
Month to date heating degree days 491 416  
Since 1 July heating degree days 3969 4073  
Cooling Degree Days 0 0  
Month to date cooling degree days 0 0  
Year to date cooling degree days 0 0  
Moisture  
Dew Point 13 °F    
Average Humidity 79    
Maximum Humidity 84    
Minimum Humidity 74    
Precipitation  
Precipitation 0.00 in 0.00 in 0.10 in (2007)
Month to date precipitation 0.08 0.10  
Year to date precipitation 0.13 0.30  
Sea Level Pressure  
Sea Level Pressure 30.02 in    
Wind  
Wind Speed 13 mph (SSE)    
Max Wind Speed 23 mph    
Max Gust Speed 30 mph    
Visibility 8 miles    
Events Snow    
T = Trace of Precipitation, MM = Missing Value Source: NWS Daily Summary

Daily Weather History Graph

Daily Weather History Graph

Search for Another Location

Airport:

Trip Planner

Search our weather history database for the weather conditions in past years. The results will help you decide how hot, cold, wet, or windy it might be!

Date:

Astronomy

Feb. 12, 2012 Rise Set
Actual Time 6:50 AM MST 5:22 PM MST
Civil Twilight 6:22 AM MST 5:50 PM MST
Nautical Twilight 5:50 AM MST 6:22 PM MST
Astronomical Twilight 5:18 AM MST 6:54 PM MST
Moon 11:26 PM MST (2/12) 9:07 AM MST (2/12)
Length of Visible Light 11h 27m
Length of Day
10h 31m
Waning Gibbous, 71% of the Moon is Illuminated
Feb 12
Waning Gibbous
Feb 14
Last Quarter
Feb 21
New
Feb 29
First Quarter
Mar 8
Full

Hourly Weather History & Observations

Time (MST) Temp. Windchill Dew Point Humidity Pressure Visibility Wind Dir Wind Speed Gust Speed Precip Events Conditions
12:19 AM 12.2 °F -4.3 °F 8.6 °F 85% 30.19 in 3.0 mi SSE 16.1 mph - N/A   Haze
12:53 AM 12.0 °F -4.5 °F 8.1 °F 84% 30.39 in 4.0 mi South 16.1 mph - N/A   Overcast
1:06 AM 12.2 °F -3.7 °F 8.6 °F 85% 30.16 in 2.5 mi South 15.0 mph - N/A   Overcast
1:37 AM 10.4 °F -5.4 °F 6.8 °F 85% 30.15 in 4.0 mi South 13.8 mph - N/A   Overcast
1:53 AM 12.0 °F -3.4 °F 8.1 °F 84% 30.35 in 9.0 mi South 13.8 mph - N/A   Mostly Cloudy
2:01 AM 12.2 °F -4.3 °F 8.6 °F 85% 30.14 in 10.0 mi South 16.1 mph - N/A   Mostly Cloudy
2:30 AM 14.0 °F -2.5 °F 8.6 °F 79% 30.12 in 10.0 mi South 17.3 mph - N/A   Scattered Clouds
2:44 AM 15.8 °F 0.9 °F 10.4 °F 79% 30.11 in 10.0 mi South 15.0 mph - N/A   Mostly Cloudy
2:53 AM 15.1 °F -1.1 °F 10.0 °F 80% 30.30 in 10.0 mi South 17.3 mph - N/A   Mostly Cloudy
3:53 AM 16.0 °F -0.4 °F 10.9 °F 81% 30.27 in 10.0 mi SSE 18.4 mph - N/A   Overcast
4:53 AM 16.0 °F -0.4 °F 10.9 °F 81% 30.24 in 10.0 mi South 18.4 mph - N/A   Overcast
5:53 AM 16.0 °F -1.7 °F 10.9 °F 81% 30.22 in 9.0 mi SSE 21.9 mph - N/A   Overcast
6:13 AM 15.8 °F -0.6 °F 10.4 °F 79% 30.02 in 7.0 mi SSE 18.4 mph - N/A   Overcast
6:22 AM 15.8 °F -0.2 °F 10.4 °F 79% 30.01 in 7.0 mi SSE 17.3 mph - N/A   Overcast
6:40 AM 15.8 °F 0.3 °F 10.4 °F 79% 30.00 in 6.0 mi SSE 16.1 mph - N/A   Haze
6:53 AM 15.1 °F -1.6 °F 10.0 °F 80% 30.22 in 6.0 mi SSE 18.4 mph - N/A   Haze
7:16 AM 15.8 °F 0.3 °F 10.4 °F 79% 29.99 in 5.0 mi SSE 16.1 mph - N/A   Haze
7:53 AM 16.0 °F -0.4 °F 10.9 °F 81% 30.19 in 4.0 mi SSE 18.4 mph - N/A   Haze
8:53 AM 17.1 °F 1.5 °F 12.0 °F 81% 30.16 in 7.0 mi South 17.3 mph - N/A   Overcast
9:50 AM 19.4 °F 4.1 °F 14.0 °F 80% 29.94 in 10.0 mi South 18.4 mph 25.3 mph N/A   Scattered Clouds
9:53 AM 19.0 °F 3.2 °F 14.0 °F 81% 30.11 in 10.0 mi South 19.6 mph 25.3 mph N/A   Scattered Clouds
10:53 AM 21.0 °F 6.2 °F 15.1 °F 78% 30.07 in 10.0 mi South 18.4 mph - N/A   Partly Cloudy
11:46 AM 23.0 °F 9.2 °F 15.8 °F 74% 29.88 in 10.0 mi South 17.3 mph - N/A   Mostly Cloudy
11:53 AM 21.9 °F 6.9 °F 16.0 °F 78% 30.04 in 10.0 mi South 19.6 mph - N/A   Mostly Cloudy
12:53 PM 23.0 °F 8.3 °F 17.1 °F 78% 29.99 in 10.0 mi South 19.6 mph - N/A   Mostly Cloudy
1:53 PM 23.0 °F 10.6 °F 17.1 °F 78% 29.96 in 10.0 mi SSE 13.8 mph - N/A   Mostly Cloudy
2:53 PM 23.0 °F 10.1 °F 17.1 °F 78% 29.94 in 10.0 mi SSE 15.0 mph - N/A   Overcast
3:53 PM 23.0 °F 11.7 °F 17.1 °F 78% 29.90 in 10.0 mi SSE 11.5 mph - N/A   Overcast
4:42 PM 23.0 °F 12.4 °F 17.6 °F 80% 29.75 in 10.0 mi South 10.4 mph - N/A   Scattered Clouds
4:53 PM 23.0 °F 14.7 °F 17.1 °F 78% 29.89 in 10.0 mi South 6.9 mph - N/A   Partly Cloudy
5:53 PM 21.9 °F - 17.1 °F 82% 29.88 in 10.0 mi Calm Calm - N/A   Mostly Cloudy
6:53 PM 21.9 °F 14.5 °F 16.0 °F 78% 29.87 in 10.0 mi NE 5.8 mph - N/A   Overcast
7:53 PM 23.0 °F 15.8 °F 17.1 °F 78% 29.86 in 10.0 mi NE 5.8 mph - N/A   Overcast
8:53 PM 23.0 °F 15.8 °F 18.0 °F 81% 29.86 in 10.0 mi North 5.8 mph - N/A   Overcast
9:53 PM 23.0 °F 15.8 °F 18.0 °F 81% 29.83 in 10.0 mi North 5.8 mph - N/A   Overcast
10:53 PM 23.0 °F 18.4 °F 18.0 °F 81% 29.80 in 10.0 mi NNE 3.5 mph - N/A   Overcast
11:30 PM 23.0 °F - 19.4 °F 86% 29.67 in 4.0 mi Calm Calm - 0.00 in Snow Light Snow
11:53 PM 23.0 °F 17.0 °F 19.0 °F 85% 29.78 in 8.0 mi North 4.6 mph - 0.00 in Snow Light Snow